Regional Weather Roundup
Issued by NWS

Home | Current Version | Previous Version | Graphics & Text | Print | Product List | Glossary On
Versions: 1 2 3 4 5 6 7 8 9 10 11 12 13 14 15 16 17 18 19 20 21 22 23 24 25 26 27 28 29 30 31 32 33 34 35 36 37 38 39 40 41 42 43 44 45 46 47 48 49 50
000
ASUS43 KLMK 301110
RWRKY
KENTUCKY REGIONAL WEATHER ROUNDUP
NATIONAL WEATHER SERVICE LOUISVILLE KY
700 AM EDT SAT MAY 30 2015

NOTE "FAIR" INDICATES FEW OR NO CLOUDS BELOW 12,000 FEET
WITH NO SIGNIFICANT WEATHER AND/OR OBSTRUCTIONS TO VISIBILITY.

KYZ001>023-026-027-061>063-070>075-301200-
WESTERN AND SOUTH CENTRAL KENTUCKY

CITY           SKY/WX    TMP DP  RH WIND       PRES   REMARKS
PADUCAH        PTCLDY    72  67  84 S7        29.97S
HENDERSON      MOCLDY    70  64  83 SE5       29.99S
OWENSBORO      CLEAR     70  67  90 S8        30.03S
HOPKINSVILLE   CLOUDY    69  65  87 SE7       30.04R
BOWLING GREEN  CLEAR     70  64  81 S6        30.08R
GLASGOW        CLEAR     68  63  84 S3        30.10R
$$

KYZ024-025-028>034-038-045-046-053-301200-
NORTH CENTRAL KENTUCKY

CITY           SKY/WX    TMP DP  RH WIND       PRES   REMARKS
LOUISVILLE/SDF PTCLDY    71  66  84 SE8       30.06R
LOUISVILLE/LOU CLEAR     70  66  87 S5        30.07R
FORT KNOX      CLEAR     67  64  91 S5        30.06R
$$

KYZ035>037-039>044-047>052-055>060-089>105-301200-
NORTHEAST KENTUCKY

CITY           SKY/WX    TMP DP  RH WIND       PRES   REMARKS
LEXINGTON      PTCLDY    68  64  87 S8        30.11R
COVINGTON      MOCLDY    69  65  86 S5        30.08R
FRANKFORT      CLOUDY    69  63  81 S5        30.09R
$$

KYZ054-064>069-076>088-106>120-301200-
SOUTHEAST KENTUCKY

CITY           SKY/WX    TMP DP  RH WIND       PRES   REMARKS
JACKSON        CLOUDY    67  62  84 VRB3      30.16R
LONDON         CLOUDY    68  62  81 CALM      30.15R
SOMERSET       CLOUDY    68  63  83 CALM      30.15R
MIDDLESBORO    CLOUDY    64  64  99 CALM      30.18R
MONTICELLO     CLOUDY    70  66  86 S3        30.16R
$$



USA.gov is the U.S. government's official web portal to all federal, state and local government web resources and services.